User: anonymous   Login
Location: Fort Wayne
(41.1310°N, 85.1290°W)
Time: 12:37:26
(UTC-04:00)
Language:

SR - Orbit

View from above orbital plane
View from above orbital plane
View from above satellite
View from above satellite

Ground track
Ground track

The orbit data is extracted from the following two-line orbital elements,

1    46U 60007B   18142.88229663 -.00000010 +00000-0 +21213-4 0  9998
2    46 066.6902 290.5904 0214158 333.2533 025.7653 14.49145791029489
Epoch (UTC): 22 May 2018 21:10:30
Eccentricity: 0.0214158
inclination: 66.6902°
perigee height: 576 km
apogee height: 880 km
right ascension of ascending node: 290.5904°
argument of perigee: 333.2533°
revolutions per day: 14.49145791
mean anomaly at epoch: 25.7653°
orbit number at epoch: 2948

The dashed part of the orbit path shows where the satellite is in the earth's shadow,  

DLR